Location: Chandrammap?lem
(16.9200°N, 81.0051°E)
Time: 21:05:28
(UTC+00:00)

GPS 2-15 Rocket1 - Pass Details

Date: 29 May 2024
Orbit: 616 x 664 km, 19.8° (Epoch: 14 June)

Event Time Altitude Azimuth Distance (km) Brightness Sun altitude
Exits shadow 22:46:14 25° 201° (SSW) 1,246 4.2 -17.0°
Maximum altitude 22:47:56 33° 161° (SSE) 1,037 4.1 -16.7°
Drops below altitude 10° 22:52:02 10° 97° (E) 1,957 6.4 -15.8°
Sets 22:54:34 0° 88° (E) 2,863 7.7 -15.3°
